Location: Newark
(54.0500°N, 12.8333°E)
Time: 10:41:53
(UTC+00:00)

Altair - All Passes

Search period start: 25 January 2020 00:00
Search period end: 04 February 2020 00:00
Orbit: 1502 x 1682 km, 47.2° (Epoch: 24 January)

Date Brightness Start Highest point End Pass type
(mag) Time Alt. Az. Time Alt. Az. Time Alt. Az.
25 Jan - 05:53:46 10° SSE 05:59:03 16° SE 06:04:22 10° E visible
25 Jan - 07:52:33 10° SSW 08:01:36 39° SSE 08:10:42 10° E daylight
25 Jan - 09:55:27 10° WSW 10:05:19 59° S 10:15:08 10° E daylight
25 Jan - 11:59:37 10° W 12:09:21 53° SSW 12:18:56 10° SE daylight
25 Jan - 14:04:25 10° W 14:12:41 30° SW 14:20:46 10° SSE daylight
26 Jan - 05:29:27 10° SSE 05:34:04 14° SE 05:38:43 10° E visible
26 Jan - 07:27:36 10° SSW 07:36:30 38° SSE 07:45:29 10° E daylight
26 Jan - 09:30:20 10° WSW 09:40:09 58° S 09:49:58 10° E daylight
26 Jan - 11:34:26 10° W 11:44:13 55° SSW 11:53:51 10° ESE daylight
26 Jan - 13:39:09 10° W 13:47:37 32° SW 13:55:56 10° SSE daylight
27 Jan - 05:05:19 10° SSE 05:09:06 13° ESE 05:12:53 10° E visible
27 Jan - 07:02:40 10° SSW 07:11:25 36° SE 07:20:16 10° E daylight
27 Jan - 09:05:12 10° WSW 09:15:00 57° SSE 09:24:48 10° E daylight
27 Jan - 11:09:15 10° W 11:19:04 56° SSW 11:28:45 10° ESE daylight
27 Jan - 13:13:54 10° W 13:22:33 34° SW 13:31:03 10° SSE daylight
27 Jan - 15:22:22 10° WSW 15:24:44 11° WSW 15:27:05 10° SW daylight
28 Jan - 04:41:31 10° SE 04:44:07 11° ESE 04:46:45 10° ESE visible
28 Jan - 06:37:46 10° SSW 06:46:20 34° SE 06:55:02 10° E daylight
28 Jan - 08:40:06 10° WSW 08:49:51 56° SSE 08:59:38 10° E daylight
28 Jan - 10:44:05 10° W 10:53:55 57° SSW 11:03:39 10° ESE daylight
28 Jan - 12:48:40 10° W 12:57:29 36° SW 13:06:10 10° SSE daylight
28 Jan - 14:56:08 10° WSW 14:59:46 12° WSW 15:03:23 10° SW daylight
29 Jan - 06:12:52 10° SSW 06:21:16 32° SE 06:29:47 10° E visible
29 Jan - 08:15:00 10° WSW 08:24:42 55° SSE 08:34:28 10° E daylight
29 Jan - 10:18:55 10° W 10:28:46 58° S 10:38:32 10° ESE daylight
29 Jan - 12:23:26 10° W 12:32:24 37° SSW 12:41:14 10° SSE daylight
29 Jan - 14:30:17 10° W 14:34:48 14° SW 14:39:17 10° SSW daylight
30 Jan - 05:48:01 10° SSW 05:56:13 30° SE 06:04:31 10° E visible
30 Jan - 07:49:55 10° SW 07:59:33 54° SSE 08:09:18 10° E daylight
30 Jan - 09:53:45 10° W 10:03:36 59° S 10:13:25 10° ESE daylight
30 Jan - 11:58:13 10° W 12:07:19 39° SSW 12:16:17 10° SSE daylight
30 Jan - 14:04:37 10° W 14:09:50 16° SW 14:15:00 10° SSW daylight
31 Jan - 05:23:12 10° SSW 05:31:10 28° SE 05:39:16 10° E visible
31 Jan - 07:24:50 10° SW 07:34:25 52° SSE 07:44:07 10° E daylight
31 Jan - 09:28:36 10° W 09:38:27 59° S 09:48:17 10° ESE daylight
31 Jan - 11:33:00 10° W 11:42:13 41° SSW 11:51:19 10° SE daylight
31 Jan - 13:39:03 10° W 13:44:50 17° SW 13:50:35 10° SSW daylight
01 Feb - 04:58:24 10° S 05:06:07 27° SE 05:13:58 10° E visible
01 Feb - 06:59:46 10° SW 07:09:17 51° SSE 07:18:56 10° E daylight
01 Feb - 09:03:26 10° W 09:13:17 60° S 09:23:10 10° ESE daylight
01 Feb - 11:07:48 10° W 11:17:07 43° SSW 11:26:20 10° SE daylight
01 Feb - 13:13:34 10° W 13:19:50 19° SW 13:26:04 10° S daylight
02 Feb - 04:33:39 10° S 04:41:05 25° SE 04:48:39 10° E visible
02 Feb - 06:34:43 10° SW 06:44:09 49° SSE 06:53:44 10° E daylight
02 Feb - 08:38:17 10° WSW 08:48:07 60° S 08:58:01 10° ESE daylight
02 Feb - 10:42:36 10° W 10:52:00 45° SSW 11:01:20 10° SE daylight
02 Feb - 12:48:08 10° W 12:54:50 20° SW 13:01:29 10° S daylight
03 Feb - 04:08:56 10° S 04:16:03 23° SE 04:23:19 10° E visible
03 Feb - 06:09:41 10° SW 06:19:02 48° SSE 06:28:33 10° E visible
03 Feb - 08:13:08 10° WSW 08:22:58 60° S 08:32:52 10° ESE daylight
03 Feb - 10:17:25 10° W 10:26:53 46° SSW 10:36:18 10° SE daylight
03 Feb - 12:22:45 10° W 12:29:49 22° SW 12:36:49 10° S daylight
